星链-1342 (STARLINK-1342 )

导读

STARLINK-1342是美国SpaceX星链(Starlink)项目中的低轨互联网通信卫星,于2020年4月22日在美国发射升空,属于星链第一代组网卫星,运行在近地轨道。它承担着为全球提供高速互联网接入服务的任务,尤其是为偏远地区、海上以及航空等场景提供网络连接,是SpaceX构建全球卫星互联网星座的重要组成部分,推动了全球太空通信基础设施的建设。

基本信息
目录编号:
45558
目录名称:
STARLINK-1342
国际标识:
2020-025AD
轨道中心:
EARTH
卫星名称:
星链-1342
卫星全名:
星链-1342 (STARLINK-1342 )
卫星状态:
已陨落 最后检测时间 2025-10-05
发射日期:
2020-04-22 UTC
国别 :
美国 (US)
星等 :
--
该卫星已列入 空间交会检测服务 Space Conjunction Data Service (SCDS) ,当前飞行风险评估等级: 无高风险
轨道信息
数据来源 国际轨道数据
星历时间: 2025-10-04T22:35:16+0800
轨道信息已过期341天
半长轴: 6608.196km
偏心率: 0.0004306
轨道倾角: 53.042°
近地点辐角 346.273°
升交点赤经 10.395°
平近点角 13.819°
近地点: 227.215km
远地点: 232.907km
周期: 89.101分钟
每日圈数: 16.161379
详细信息
固有亮度:
5
最大亮度:
2.5
卫星平台:
Starlink V1.0
覆盖范围:
全球
运营商:
太空探索技术公司
运营商所在国:
美国
制造商(研发单位):
太空探索技术公司
制造商所在国:
美国
使用方式:
暂无
卫星简介
星链(Starlink)计划是由太空探索技术公司(SpaceX)提出的一个巨型低轨卫星互联网星座项目,计划在2019年至2024年间在太空搭建由约1.2万颗卫星组成的“星链”网络,其中1584颗将部署在地球上空550千米处的近地轨道,并从2020年开始工作。该卫星仍在工作。
与全量物体交会距离演化趋势
与全量物体交会风险概率演化趋势